Tracking 19562 objects as of 24-Mar-2019
HD Live streaming from Space Station
objects crossing your sky now

FLOCK 3M 4

Track FLOCK 3M 4 now!
10-day predictions
FLOCK 3M 4 is classified as:


NORAD ID: 42997
Int'l Code: 2017-068L
Perigee: 503.2 km
Apogee: 523.6 km
Inclination: 97.4 °
Period: 94.7 minutes
Semi major axis: 6884 km
RCS: Unknown
Launch date: October 31, 2017
Source: United States (US)
Launch site: AIR FORCE WESTERN TEST RANGE (AFWTR)
aabbcc
Your satellite tracking list
Your tracking list is empty




NASA's NSSDC Master Catalog

Two Line Element Set (TLE):
1 42997U 17068L   19083.22654422  .00001400  00000-0  68324-4 0  9993
2 42997  97.3884 195.2760 0014818 248.0183 111.9478 15.19850516 77163
Source of the keplerian elements: AFSPC